User: anonymous   Login
Location: Unspecified
(0.0000°N, 0.0000°E)
Time: 07:42:01
(UTC+00:00)
Language:

COSMOS 2439 - Orbit

View from above orbital plane
View from above orbital plane
View from above satellite
View from above satellite

Ground track
Ground track

The orbit data is extracted from the following two-line orbital elements,

1 32956U 08025D   18115.74162919 +.00000025 +00000-0 +11164-3 0  9998
2 32956 082.5092 046.5284 0020251 329.5705 030.4211 12.43004509450258
Epoch (UTC): 25 April 2018 17:47:56
Eccentricity: 0.0020251
inclination: 82.5092°
perigee height: 1478 km
apogee height: 1510 km
right ascension of ascending node: 46.5284°
argument of perigee: 329.5705°
revolutions per day: 12.43004509
mean anomaly at epoch: 30.4211°
orbit number at epoch: 45025

The dashed part of the orbit path shows where the satellite is in the earth's shadow,  

DLR